Dover, DE

2:46 AM EDT on August 29, 2016 (GMT -0400)
Dover Air Force Base

Weather History for KDOV - October, 2012

Change the Weather History Date:

Tuesday, October 16, 2012

  Actual Average Record
Temperature  
Mean Temperature 56 °F -  
Max Temperature 63 °F 72 °F 86 °F (1989)
Min Temperature 47 °F 48 °F 33 °F (1978)
Degree Days  
Heating Degree Days 10    
Growing Degree Days 6 (Base 50)    
Moisture  
Dew Point 44 °F    
Average Humidity 67    
Maximum Humidity 94    
Minimum Humidity 46    
Precipitation  
Precipitation 0.00 in - - ()
Sea Level Pressure  
Sea Level Pressure 29.84 in    
Wind  
Wind Speed 10 mph (WNW)    
Max Wind Speed 20 mph    
Max Gust Speed 25 mph    
Visibility 10 miles    
Events      
Averages and records for this station are not official NWS values.
T = Trace of Precipitation, MM = Missing Value Source: NWS Daily Summary

Daily Weather History Graph

Daily Weather History Graph

Search for Another Location

Airport or City:

Trip Planner

Search our weather history database for the weather conditions in past years. The results will help you decide how hot, cold, wet, or windy it might be!

Date:

Astronomy

Oct. 16, 2012 Rise Set
Actual Time 7:12 AM EDT 6:21 PM EDT
Civil Twilight 6:45 AM EDT 6:47 PM EDT
Nautical Twilight 6:14 AM EDT 7:19 PM EDT
Astronomical Twilight 5:43 AM EDT 7:49 PM EDT
Moon 8:32 AM EDT (10/16) 7:04 PM EDT (10/16)
Length of Visible Light 12h 02m
Length of Day
11h 08m
New Moon, 2% of the Moon is Illuminated
Oct 16
New Moon
Oct 21
First Quarter
Oct 29
Full
Nov 6
Last Quarter
Nov 13
New

Hourly Weather History & Observations

Time (EDT) Temp. Dew Point Humidity Pressure Visibility Wind Dir Wind Speed Gust Speed Precip Events Conditions
12:06 AM 59.0 °F 57.2 °F 94% 29.73 in 10.0 mi West 6.9 mph - N/A   Partly Cloudy
12:55 AM 58.1 °F 54.5 °F 88% 29.75 in 10.0 mi West 11.5 mph - 0.00 in   Scattered Clouds
1:55 AM 55.6 °F 51.8 °F 87% 29.75 in 10.0 mi West 8.1 mph - N/A   Partly Cloudy
2:55 AM 54.5 °F 49.8 °F 84% 29.74 in 10.0 mi WNW 10.4 mph - N/A   Clear
3:55 AM 53.6 °F 46.0 °F 76% 29.75 in 10.0 mi WNW 12.7 mph - N/A   Clear
4:55 AM 52.3 °F 45.5 °F 78% 29.78 in 10.0 mi West 10.4 mph - N/A   Clear
5:55 AM 51.4 °F 44.4 °F 77% 29.80 in 10.0 mi WNW 11.5 mph - N/A   Clear
6:55 AM 51.1 °F 43.2 °F 74% 29.83 in 10.0 mi WNW 11.5 mph - N/A   Clear
7:55 AM 51.3 °F 42.6 °F 72% 29.85 in 10.0 mi West 6.9 mph - N/A   Clear
8:55 AM 53.6 °F 43.7 °F 69% 29.86 in 10.0 mi West 11.5 mph - N/A   Clear
9:55 AM 56.8 °F 43.7 °F 61% 29.87 in 10.0 mi WNW 12.7 mph - N/A   Clear
10:55 AM 58.5 °F 42.8 °F 56% 29.86 in 10.0 mi NW 13.8 mph - N/A   Clear
11:55 AM 59.7 °F 41.9 °F 52% 29.87 in 10.0 mi NW 17.3 mph 24.2 mph N/A   Clear
12:55 PM 60.8 °F 41.7 °F 49% 29.86 in 10.0 mi NW 19.6 mph 25.3 mph N/A   Clear
1:55 PM 62.2 °F 41.7 °F 47% 29.84 in 10.0 mi NW 16.1 mph 23.0 mph N/A   Clear
2:55 PM 62.8 °F 41.7 °F 46% 29.83 in 10.0 mi NW 11.5 mph - N/A   Clear
3:55 PM 62.2 °F 41.4 °F 46% 29.83 in 10.0 mi WNW 16.1 mph - N/A   Clear
4:55 PM 61.0 °F 41.5 °F 49% 29.84 in 10.0 mi NW 11.5 mph - N/A   Clear
5:55 PM 58.6 °F 40.8 °F 52% 29.86 in 10.0 mi West 11.5 mph - N/A   Clear
6:55 PM 55.9 °F 41.2 °F 58% 29.88 in 10.0 mi NW 4.6 mph - N/A   Clear
7:55 PM 52.5 °F 40.8 °F 64% 29.89 in 10.0 mi Calm Calm - N/A   Clear
8:55 PM 50.4 °F 41.5 °F 72% 29.90 in 10.0 mi Calm Calm - N/A   Clear
9:55 PM 50.0 °F 42.8 °F 76% 29.92 in 10.0 mi Calm Calm - N/A   Clear
10:55 PM 49.6 °F 42.4 °F 76% 29.92 in 10.0 mi WNW 4.6 mph - N/A   Clear
11:55 PM 47.3 °F 42.6 °F 84% 29.92 in 10.0 mi Calm Calm - N/A   Clear